User: anonymous   Login
Location: Unspecified
(0.0000°N, 0.0000°E)
Time: 07:55:16
(UTC+00:00)
Language:

WGS F3 (USA 211) - Orbit

View from above orbital plane
View from above orbital plane
View from above satellite
View from above satellite

Ground track
Ground track

The orbit data is extracted from the following two-line orbital elements,

1 36108U 09068A   15088.08206499 0.00000000  00000-0  00000-0 0    04
2 36108   0.0147 203.7714 0003453 357.1572   2.8143  1.00270000    09
Epoch (UTC): 29 March 2015 01:58:10
Eccentricity: 0.0003453
inclination: 0.0147°
perigee height: 35772 km
apogee height: 35801 km
right ascension of ascending node: 203.7714°
argument of perigee: 357.1572°
revolutions per day: 1.00270000
mean anomaly at epoch: 2.8143°
orbit number at epoch: 0

The dashed part of the orbit path shows where the satellite is in the earth's shadow,  

DLR